Hill City, KS

9:22 PM CDT on October 19, 2017 (GMT -0500)
Hill City Municipal

Weather History for KHLC - October, 2011

Change the Weather History Date:

Monday, October 3, 2011

  Actual Average Record
Temperature  
Mean Temperature 72 °F 60 °F  
Max Temperature 96 °F 74 °F 96 °F (1954)
Min Temperature 48 °F 45 °F 31 °F (2009)
Cooling Degree Days 6    
Growing Degree Days 22 (Base 50)    
Moisture  
Dew Point 40 °F    
Average Humidity 37    
Maximum Humidity 61    
Minimum Humidity 12    
Precipitation  
Precipitation 0.00 in 0.05 in 0.62 in (2017)
Month to date precipitation 0.00 0.16  
Year to date precipitation 16.81 19.92  
Sea Level Pressure  
Sea Level Pressure 30.00 in    
Wind  
Wind Speed 7 mph (SE)    
Max Wind Speed 16 mph    
Max Gust Speed 24 mph    
Visibility 10 miles    
Events      
T = Trace of Precipitation, MM = Missing Value Source: NWS Daily Summary

Daily Weather History Graph

Daily Weather History Graph

Search for Another Location

Airport or City:

Trip Planner

Search our weather history database for the weather conditions in past years. The results will help you decide how hot, cold, wet, or windy it might be!

Date:

Astronomy

Oct. 03, 2011 Rise Set
Actual Time 7:37 AM CDT 7:19 PM CDT
Civil Twilight 7:10 AM CDT 7:45 PM CDT
Nautical Twilight 6:39 AM CDT 8:16 PM CDT
Astronomical Twilight 6:07 AM CDT 8:48 PM CDT
Moon 2:34 PM CDT (10/3) No Moon Set
Length of Visible Light 12h 35m
Length of Day
11h 41m
Waxing Crescent, 45% of the Moon is Illuminated
Oct 3
Waxing Crescent
Oct 3
First Quarter
Oct 11
Full
Oct 19
Last Quarter
Oct 26
New

Hourly Weather History & Observations

Time (CDT) Temp. Dew Point Humidity Pressure Visibility Wind Dir Wind Speed Gust Speed Precip Events Conditions
12:53 AM 61.0 °F 37.0 °F 41% 30.02 in 10.0 mi East 8.1 mph - N/A   Clear
2:53 AM 57.9 °F 37.0 °F 46% 30.01 in 10.0 mi ESE 4.6 mph - N/A   Clear
3:53 AM 53.1 °F 36.0 °F 52% 30.01 in 10.0 mi ESE 4.6 mph - N/A   Clear
4:53 AM 52.0 °F 37.0 °F 57% 30.01 in 10.0 mi East 3.5 mph - N/A   Clear
5:53 AM 51.1 °F 37.0 °F 59% 30.01 in 10.0 mi ESE 4.6 mph - N/A   Clear
6:53 AM 51.1 °F 37.0 °F 59% 30.03 in 10.0 mi Calm Calm - N/A   Clear
7:53 AM 48.9 °F 36.0 °F 61% 30.06 in 10.0 mi East 4.6 mph - N/A   Clear
8:53 AM 53.1 °F 37.9 °F 57% 30.06 in 10.0 mi Calm Calm - N/A   Clear
9:53 AM 59.0 °F 39.0 °F 48% 30.07 in 10.0 mi Calm Calm - N/A   Clear
10:53 AM 68.0 °F 39.9 °F 36% 30.06 in 10.0 mi Calm Calm - N/A   Clear
11:53 AM 75.0 °F 41.0 °F 29% 30.04 in 10.0 mi Calm Calm - N/A   Clear
1:53 PM 87.1 °F 42.1 °F 21% 29.99 in 10.0 mi ESE 9.2 mph - N/A   Clear
3:53 PM 93.9 °F 42.1 °F 17% 29.94 in 10.0 mi ESE 9.2 mph 19.6 mph N/A   Clear
4:53 PM 95.0 °F 34.0 °F 12% 29.93 in 10.0 mi South 11.5 mph - N/A   Clear
5:53 PM 91.9 °F 42.1 °F 18% 29.93 in 10.0 mi ESE 16.1 mph 23.0 mph N/A   Clear
6:53 PM 86.0 °F 43.0 °F 22% 29.94 in 10.0 mi ESE 10.4 mph - N/A   Clear
7:53 PM 81.0 °F 43.0 °F 26% 29.96 in 10.0 mi SE 11.5 mph - N/A   Clear
8:53 PM 79.0 °F 44.1 °F 29% 29.96 in 10.0 mi SSE 16.1 mph - N/A   Clear
9:53 PM 75.9 °F 43.0 °F 31% 29.97 in 10.0 mi SSE 15.0 mph - N/A   Clear
10:53 PM 73.9 °F 41.0 °F 30% 29.98 in 10.0 mi South 11.5 mph - N/A   Clear
11:53 PM 75.0 °F 41.0 °F 29% 29.97 in 10.0 mi SSW 16.1 mph 24.2 mph N/A   Clear